Terminal Aerodrome Forecast
Issued by NWS Kansas City/Pleasant Hill, MO

Home | Current Version | Previous Version | Text Only | Print | Product List | Glossary On
Versions: 1 2 3 4 5 6 7 8 9 10 11 12
000
FTUS43 KEAX 111100
TAFMCI
TAF
KMCI 111122Z 1112/1212 15009KT P6SM VCTS SCT100CB BKN120
     FM111500 18012G20KT P6SM SCT100
     FM120100 19010KT P6SM SCT100=

USA.gov is the U.S. government's official web portal to all federal, state and local government web resources and services.